Погода в Клайпеде

Литва     55°42′18″N   21°08′57″E
темп.,
°C
ветер,
м/с
пор.,
м/с
влажн.,
%
обл.,
%
осадки,
мм/ч
давл.,
гПа
погр.,
м
19 апреля, пн
пн1900:00+9всв46653 0.0 102280
03:00+8всв410685 0.0 1022141
06:00+7всв510680 0.0 1021135
09:00+10всв59580 0.0 1022245
12:00+14всв67430 0.0 1021990
15:00+15в45405 0.0 10211735
18:00+15в554287 0.0 10201741
21:00+11в3464100 0.0 102147
20 апреля, вт
вт2000:00+9всв466955 0.0 102183
03:00+7в337577 0.0 102041
06:00+7вюв227794 0.0 101917
09:00+9всв116989 0.0 1018143
12:00+12сз2259100 0.0 1017745
15:00+12сз446084 0.3 1015669
18:00+12ссз566389 0.5 1014702
21:00+9с337367 0.8 101340
21 апреля, ср
ср2100:00+7в368487 0.0 101284
03:00+6вюв2288100 0.0 101121
06:00+6всв118940 0.0 101010
09:00+8зсз12788 0.0 1009205
12:00+10з44666 0.0 1008651
15:00+10з56615 0.0 1008527
18:00+9зюз576989 0.0 1007365
21:00+7юз3880100 0.0 1006232
22 апреля, чт
чт2200:00+6зюз61089100 0.0 1006475
03:00+4ююз5988100 1.4 1006580
06:00+4юз711856 0.3 1005694
09:00+4юз9107689 0.3 10061025
12:00+3ююз91295100 0.5 1008796
15:00+3ююз81296100 1.6 1008714
18:00+5ююз61077100 0.2 1008980
21:00+4юз478864 0.3 1009284
23 апреля, пт
пт2300:00+4ю3592100 0.4 1008593
03:00+3ююз2495100 4.6 1008338
06:00+3з238596 0.3 1008182
09:00+5з467594 0.4 1008879
12:00+5сз8977100 0.4 1009958
15:00+3сз101595100 1.3 1011885
18:00+5сз8107391 0.2 10131107
21:00+2сз58785 0.3 1014422